Location: Helensbirgh
(56.0153°N, 4.7348°W)
Time: 15:45:37
(UTC+00:00)

N. Korean satellite - Pass Details

Date: 28 October 2019
Orbit: 456 x 506 km, 97.2° (Epoch: 12 November)

Event Time Altitude Azimuth Distance (km) Brightness Sun altitude
Rises 18:19:15 0° 206° (SSW) 2,487 10.6 -13.2°
Reaches altitude 10° 18:21:48 10° 227° (SW) 1,626 10.0 -13.6°
Maximum altitude 18:24:11 17° 270° (W) 1,262 9.9 -13.9°
Drops below altitude 10° 18:26:36 10° 314° (NW) 1,654 9.9 -14.2°
Sets 18:29:14 0° 335° (NNW) 2,550 10.5 -14.6°
